Regional Weather Roundup
Issued by NWS Charleston, SC

Current Version | Previous Version | Text Only | Print | Product List | Glossary On
Versions: 1 2 3 4 5 6 7 8 9 10 11 12 13 14 15 16 17 18 19 20 21 22 23 24 25 26 27 28 29 30 31 32 33 34 35 36 37 38 39 40 41 42 43 44 45 46 47 48 49 50
000
ASUS42 KCHS 021627
RWRCHS

REGIONAL WEATHER ROUNDUP
NATIONAL WEATHER SERVICE CHARLESTON SC
1200 PM EDT WED SEP 02 2015

NOTE: "FAIR" INDICATES FEW OR NO CLOUDS BELOW 12,000 FEET WITH NO
SIGNIFICANT WEATHER AND/OR OBSTRUCTIONS TO VISIBILITY.

NOT ALL STATIONS ARE QUALITY CONTROLLED BY THE NATIONAL
WEATHER SERVICE. USE DATA WITH CAUTION...ESPECIALLY
DEWPOINT OBSERVATIONS.

SCZ027-030-031-034>040-042>050-021700-
...SOUTHEAST SOUTH CAROLINA...

CITY           SKY/WX    TMP DP  RH WIND       PRES   REMARKS
N CHARLESTON   PTSUNNY   88  70  55 CALM      30.08F HX  93
WATERFRONT PRK   N/A     85  76  74 VRB3      30.07F HX  95
MOUNT PLEASANT LGT RAIN  88  73  62 CALM      30.08F HX  96
JOHNS ISLAND   FAIR      91  77  62 CALM      30.08F HX 105
PINOPOLIS        N/A     88  75  66 CALM      30.01S HX  97
MONCKS CORNER  FAIR      90  70  51 CALM      30.08F HX  95
SUMMERVILLE    FAIR      88  72  58 CALM      30.09F HX  94
BEAUFORT MCAS  SUNNY     87  75  67 CALM      30.09S HX  96
BEAUFORT ARPT  FAIR      86  77  74 CALM      30.09S HX  97
HILTON HEAD IS MOSUNNY   86  77  74 NW5       30.11S HX  97
WALTERBORO     MOSUNNY   90  72  55 CALM      30.09F HX  96
ALLENDALE      FAIR      90  72  55 SE5       30.08F HX  96

...SOUTHERN MIDLANDS AND PEE DEE...

CITY           SKY/WX    TMP DP  RH WIND       PRES   REMARKS
GEORGETOWN     NOT AVBL
KINGSTREE      NOT AVBL
ORANGEBURG     SUNNY     88  68  51 S3        30.09F HX  91
BARNWELL       FAIR      91  70  49 SW3       30.09F HX  97
AIKEN          FAIR      88  63  42 SW5       30.13F
MANNING        FAIR      88  64  45 NW3       30.08F
COLUMBIA       MOSUNNY   90  69  50 CALM      30.08F HX  94
SUMTER         SUNNY     89  69  51 SE2       30.07S HX  93
FLORENCE       MOSUNNY   89  71  55 N6        30.08S HX  95
MYRTLE BEACH   PTSUNNY   90  72  55 CALM      30.09F HX  96
N MYRTLE BEACH MOSUNNY   90  72  55 NE3       30.07F HX  97

$$

GAZ063-065-086>088-099>101-113>116-118-119-134>141-150-021700-
...SOUTHEAST GEORGIA...

CITY           SKY/WX    TMP DP  RH WIND       PRES   REMARKS
SAVANNAH ARPT  PTSUNNY   86  74  67 NW5       30.09F HX  94
HUNTER AAF     MOSUNNY   87  81  80 NW3       30.07S HX 104
FORT STEWART   NOT AVBL
STATESBORO     PTSUNNY   85  76  74 CALM      30.10S HX  95
SYLVANIA       MOSUNNY   88  77  69 CALM      30.10F HX  99
CLAXTON        NOT AVBL

...CSRA...CENTRAL AND FAR SOUTHEAST GEORGIA...

CITY           SKY/WX    TMP DP  RH WIND       PRES   REMARKS
THOMSON        SUNNY     89  73  58 CALM      30.14F HX  97
AUGUSTA-BUSH   SUNNY     89  69  51 CALM      30.08F HX  93
AUGUSTA-DANIEL SUNNY     87  69  54 W3        30.11S HX  91
SWAINSBORO     CLOUDY    88  70  55 N3        30.11F HX  92
VIDALIA        LGT RAIN  81  73  78 CALM      30.11F
EASTMAN        FAIR      78  78 100 CALM      30.13F
HAZLEHURST     CLOUDY    85  77  76 S6        30.09F HX  95
ALMA           CLOUDY    79  76  90 NE3       30.09F
WAYCROSS       LGT RAIN  80  80  98 E6        30.09F
JESUP          FAIR      84  79  84 W3        30.10F HX  96
BAXLEY         LGT RAIN  81  77  89 CALM      30.10F
BRUNSWICK      CLOUDY    82  75  78 CALM      30.10S THUNDER
SAINT SIMONS   CLOUDY    80  75  84 E5        30.09S THUNDER

$$

SCZ027-028-034-036>038-045-046-048>050-GAZ119-141-021700-
...LAKE AND SUPPLEMENTAL COASTAL OBSERVATIONS...

STATION/POSITION TIME  TEMP    WIND        PRES    WAVE   SWELL
                       AIR SEA DIR/SP/G            HT/PER HT/PER/DIR
                 (UTC) (F)     (DEG/KT/KT) (MB)    (FT/S) (FT/S/D)
UPR LAKE MARION  NOT AVBL
WINYAH BAY       1545   86     270/  2     1018.0S
LAKE MURRAY      1500   84     170/  4/  5 1018.6S
ACE BASIN NERRS  NOT AVBL
FORT PULASKI     1600   83 83   60/  6/  6 1019.4F
SAPELO ISLAND    1600   86     330/  3     1019.0S

$$

ANZ835-935-AMZ111-154-330-350-352-354-370-450-454-472-021700-
...C-MAN AND BUOY OBSERVATIONS...

STATION/POSITION TIME  TEMP    WIND        PRES    WAVE   SWELL
                       AIR SEA DIR/SP/G            HT/PER HT/PER/DIR
                 (UTC) (F)     (DEG/KT/KT) (MB)    (FT/S) (FT/S/D)
BUOY 41004       1550   81 84  360/  6/  6 1018.6F   2/ 9   2/ 9
BUOY 41008       1550   82 84  350/  6/  8 1018.9R   2/ 7   2/110/ 7
FOLLY BEACH CMAN 1600   85      80/  2/  3 1018.8F
CAPERS NEARSHORE 1508   82     310/  4/  4 1019.2R
FRIPP NEARSHORE  1500   83      20/  6/  8 1018.6F


STATION/POSITION TIME  TEMP    WIND        PRES    WAVE   SWELL
                       AIR SEA DIR/SP/G            HT/PER HT/PER/DIR
                 (UTC) (F)     (DEG/KT/KT) (MB)    (FT/S) (FT/S/D)
5E ST. MARYS GA  1521      85                N/A     2/ 7
FRYING PAN BUOY  1550   81 81  270/  4/  6 1019.0S   2/10   2/130/10
BUOY 41025       1550   80 84  360/  6/  6 1017.9R   2/14   2/140/14
CAPE LOOKOUT NC  1600   84     190/  3/  5 1017.4F
BUOY 41002       1550   82 84  270/  8/ 10 1018.5F   2/ 9   2/ 80/ 9
BUOY 41010       1520   85 87  240/  4/  6 1019.6R
ST AUGUSTINE FL  1600   83 83  130/  7/  8 1019.5F


$$



USA.gov is the U.S. government's official web portal to all federal, state and local government web resources and services.